Simultaneous Nadir Overpasses (SNOs) Predictions

Prediction of SNOs between NOAA-19 and METOP-C Satellite Orbit:

Table of predicted SNOs for the next 14.0 days since TLE Epoch: 7/12/2019
Index Date (NOAA-19) Time (NOAA-19) Lat,Lon (NOAA-19) SZA (NOAA-19 ) Date (METOP-C) Time (METOP-C) Lat,Lon (METOP-C) SZA (METOP-C ) Distance(km) Time Diff (sec)
1 07/23/2019 14:17:43 -79.36, 162.27 120.35 07/23/2019 14:18:49 -79.36, 162.15 120.34 2.53 66
2 07/23/2019 15:08:42 79.36, -30.45 59.66 07/23/2019 15:09:30 79.35, -30.56 59.66 2.28 48
3 07/23/2019 15:59:44 -79.36, 136.71 120.34 07/23/2019 16:00:11 -79.35, 136.70 120.35 2.06 27
4 07/23/2019 16:50:43 79.36, -56.01 59.67 07/23/2019 16:50:52 79.34, -56.01 59.66 2.35 9
5 07/23/2019 17:41:44 -79.34, 111.43 120.33 07/23/2019 17:41:32 -79.37, 111.52 120.31 3.37 12
6 07/23/2019 18:32:43 79.34, -81.29 59.68 07/23/2019 18:32:13 79.36, -81.19 59.70 3.23 30
7 07/23/2019 19:23:45 -79.35, 85.87 120.32 07/23/2019 19:22:55 -79.32, 85.81 120.36 3.44 50
8 07/23/2019 20:14:44 79.34,-106.84 59.69 07/23/2019 20:13:36 79.31,-106.90 59.65 3.63 68




NCC Satellite Simultaneous Nadir Overpasses (SNOs) Prediction Service
